Weather History for Monticello, AR

Change the Weather History Date:

Thursday, January 24, 2013

  Actual Average Record
Temperature  
Mean Temperature 50 °F -  
Max Temperature 57 °F 54 °F 76 °F (1972)
Min Temperature 43 °F 32 °F -3 °F (1963)
Degree Days  
Heating Degree Days 15    
Moisture  
Dew Point 36 °F    
Average Humidity 63    
Maximum Humidity 88    
Minimum Humidity 46    
Precipitation  
Precipitation 0.00 in - - ()
Sea Level Pressure  
Sea Level Pressure 30.26 in    
Wind  
Wind Speed 7 mph (NE)    
Max Wind Speed 13 mph    
Max Gust Speed 23 mph    
Visibility 10 miles    
Events Rain    
Averages and records for this station are not official NWS values.
T = Trace of Precipitation, MM = Missing Value Source: NWS Daily Summary

Daily Weather History Graph

Daily Weather History Graph

Search for Another Location

Airport:

Trip Planner

Search our weather history database for the weather conditions in past years. The results will help you decide how hot, cold, wet, or windy it might be!

Date:

Astronomy

Jan. 24, 2013 Rise Set
Actual Time 7:08 AM CST 5:30 PM CST
Civil Twilight 6:41 AM CST 5:57 PM CST
Nautical Twilight 6:11 AM CST 6:27 PM CST
Astronomical Twilight 5:41 AM CST 6:57 PM CST
Moon 3:34 PM CST (1/24) 5:04 AM CST (1/24)
Length of Visible Light 11h 15m
Length of Day
10h 22m
Waxing Gibbous, 94% of the Moon is Illuminated
Jan 24
Waxing Gibbous
Jan 26
Full
Feb 3
Last Quarter
Feb 10
New
Feb 17
First Quarter

Hourly Weather History & Observations

Time (CST) Temp. Windchill Dew Point Humidity Pressure Visibility Wind Dir Wind Speed Gust Speed Precip Events Conditions
12:53 AM 57.9 °F - 48.0 °F 70% 30.21 in 10.0 mi SW 6.9 mph - N/A   Mostly Cloudy
1:53 AM 57.0 °F - 48.9 °F 74% 30.21 in 10.0 mi SW 9.2 mph - N/A   Mostly Cloudy
2:53 AM 57.0 °F - 50.0 °F 77% 30.23 in 10.0 mi WSW 6.9 mph - N/A   Overcast
3:53 AM 55.0 °F - 50.0 °F 83% 30.22 in 10.0 mi West 6.9 mph - N/A   Scattered Clouds
4:53 AM 53.1 °F - 48.9 °F 86% 30.25 in 10.0 mi North 3.5 mph - N/A   Partly Cloudy
5:09 AM 53.6 °F - 50.0 °F 88% 30.25 in 10.0 mi Calm Calm - N/A   Mostly Cloudy
5:53 AM 54.0 °F - 48.9 °F 83% 30.26 in 10.0 mi NE 3.5 mph - N/A   Overcast
6:53 AM 50.0 °F - 43.0 °F 77% 30.29 in 10.0 mi NE 9.2 mph - N/A   Overcast
7:53 AM 48.0 °F - 39.9 °F 74% 30.32 in 10.0 mi NE 9.2 mph 18.4 mph 0.00 in Rain Light Rain
8:53 AM 46.0 °F 40.2 °F 33.1 °F 61% 30.34 in 10.0 mi ENE 12.7 mph 23.0 mph 0.00 in   Overcast
9:53 AM 46.0 °F 40.6 °F 32.0 °F 58% 30.35 in 10.0 mi ENE 11.5 mph - N/A   Overcast
10:53 AM 48.0 °F - 32.0 °F 54% 30.35 in 10.0 mi ENE 11.5 mph - N/A   Overcast
11:53 AM 48.0 °F - 32.0 °F 54% 30.33 in 10.0 mi NE 10.4 mph - N/A   Overcast
12:53 PM 48.0 °F - 30.9 °F 52% 30.31 in 10.0 mi NNE 6.9 mph - N/A   Overcast
1:53 PM 48.0 °F - 30.9 °F 52% 30.28 in 10.0 mi NE 8.1 mph - 0.00 in   Overcast
2:53 PM 48.0 °F - 30.9 °F 52% 30.27 in 10.0 mi NE 8.1 mph - N/A   Overcast
3:53 PM 48.0 °F - 28.0 °F 46% 30.27 in 10.0 mi ENE 10.4 mph - N/A   Overcast
4:53 PM 46.0 °F 41.0 °F 28.9 °F 51% 30.26 in 10.0 mi ENE 10.4 mph - N/A   Overcast
5:53 PM 46.0 °F 42.5 °F 28.9 °F 51% 30.25 in 10.0 mi NE 6.9 mph - N/A   Overcast
6:53 PM 45.0 °F 39.7 °F 28.9 °F 53% 30.24 in 10.0 mi ENE 10.4 mph - N/A   Overcast
7:53 PM 45.0 °F 42.6 °F 28.9 °F 53% 30.24 in 10.0 mi NNE 4.6 mph - N/A   Overcast
8:53 PM 44.1 °F 40.8 °F 28.0 °F 53% 30.23 in 10.0 mi NE 5.8 mph - N/A   Overcast
9:53 PM 44.1 °F 40.1 °F 30.0 °F 58% 30.20 in 10.0 mi ENE 6.9 mph - N/A   Overcast
10:53 PM 43.0 °F 41.3 °F 30.0 °F 60% 30.20 in 10.0 mi NE 3.5 mph - N/A   Overcast
11:53 PM 43.0 °F 40.3 °F 30.0 °F 60% 30.20 in 10.0 mi NE 4.6 mph - N/A   Overcast